Regional Weather Roundup
Issued by NWS Goodland, KS

Home | Current Version | Previous Version | Text Only | Print | Product List | Glossary Off
Versions: 1 2 3 4 5 6 7 8 9 10 11 12 13 14 15 16 17 18 19 20 21 22 23 24 25 26 27 28 29 30 31 32 33 34 35 36 37 38 39 40 41 42 43 44 45 46 47 48 49 50

000
ASUS43 KGLD 290008
RWRGLD

GOODLAND FORECAST AREA HOURLY WEATHER ROUNDUP
NATIONAL WEATHER SERVICE GOODLAND KS
600 PM MDT SUN AUG 28 2016

...OFFICIAL OBSERVATIONS...

CITY           SKY/WX    TMP DP  RH WIND       PRES   REMARKS
GOODLAND KS    SUNNY     84  56  38 SE12      30.08R
HILL CITY KS   SUNNY     84  62  47 S9        30.05R
IMPERIAL NEB   SUNNY     82  56  40 S13       30.07S
MCCOOK NEB     SUNNY     82  60  47 SE9       30.05S
AKRON CO       CLOUDY    83  46  27 SE14      30.12S
BURLINGTON CO  SUNNY     84  51  31 S12       30.11R
LIMON CO       CLOUDY    77  42  28 E16       30.17S
$$

...UNOFFICIAL OBSERVATIONS...

CITY           SKY/WX    TMP DP  RH WIND       PRES   REMARKS
COLBY KS       SUNNY     84  59  42 SE13      30.08R
LENORA KS        N/A     83  32  16 MISG        N/A
NORTON KS      SUNNY     82  54  36 SE9       30.05R
SHARON SPRINGS   N/A     84  62  46 SE13G20     N/A
TRENTON NEB      N/A     83  32  16 MISG        N/A
KIT CARSON CO    N/A     83  56  39 MISG        N/A
YUMA CO          N/A     77  56  48 SE6         N/A
$$




USA.gov is the U.S. government's official web portal to all federal, state and local government web resources and services.